Temperature
18 19 20 20 20 20 22 24 25 24 25 24 24 24 24 24 22 20 20 19 19 19 19 18 17 16 15 14 13 12 12 12 11 11 11 10 10 10 10 10 10 10 10 10 10 10 10 10 11
18 19 20 21 20 20 23 24 24 24 24 24 24 24 24 24 23 21 20 19 19 19 19 18 17 16 15 14 13 12 12 11 11 11 10 10 10 10 10 10 10 10 10 10 10 10 10 11 11
19 19 21 21 21 21 23 24 24 24 24 24 24 24 24 24 23 21 21 20 19 19 19 18 17 16 15 14 13 12 11 11 11 10 10 10 10 10 10 10 10 10 10 10 10 10 11 11 11
19 20 21 21 22 24 24 24 24 24 24 23 24 24 24 23 22 21 21 20 19 19 18 18 17 16 15 14 13 12 11 11 10 10 10 10 10 10 10 10 10 10 10 10 11 11 11 11 11
19 21 21 21 23 25 25 25 24 24 24 24 24 24 23 22 22 21 21 20 19 18 18 18 17 16 15 13 12 12 11 11 10 10 10 10 9 9 10 10 10 10 10 10 10 11 11 11 11
20 22 21 21 23 25 25 24 24 24 24 24 24 24 22 21 21 21 21 20 18 18 17 18 17 16 14 13 12 12 11 11 10 10 10 9 9 9 9 9 10 10 10 10 10 11 11 11 11
21 20 21 22 23 24 24 24 24 23 23 24 24 23 22 20 20 20 20 19 18 17 16 17 16 15 14 13 12 11 11 11 10 10 9 9 9 9 9 9 9 10 10 10 10 11 11 11 11
20 21 21 22 23 23 24 23 23 23 23 23 23 23 21 20 20 19 19 18 17 17 16 16 16 15 14 12 12 11 11 10 10 10 9 9 9 9 9 9 9 9 10 10 10 10 10 10 10
20 20 20 22 22 23 23 23 23 22 22 22 22 22 21 20 20 19 19 18 17 16 15 15 15 14 13 12 11 11 11 10 10 10 9 9 9 9 9 9 9 9 9 10 10 10 10 10 10
21 19 20 22 22 22 22 22 22 22 22 22 22 22 21 20 19 18 18 17 17 16 15 14 14 14 13 12 11 11 11 10 10 10 9 9 9 9 8 9 9 9 9 9 10 10 10 10 10
22 20 21 22 22 21 21 21 21 21 20 21 20 20 19 19 18 18 17 17 17 16 15 14 13 13 12 12 11 11 11 10 10 10 9 9 9 8 8 8 8 9 9 9 9 9 9 9 9
22 21 22 22 21 20 20 20 20 21 21 20 20 19 19 18 18 18 17 17 17 16 15 14 13 13 12 12 11 11 11 10 10 10 9 9 9 8 8 8 8 8 9 9 9 9 9 8 8
21 21 22 21 20 20 20 19 20 20 20 20 19 18 18 18 17 17 17 17 17 16 15 14 13 13 12 12 11 11 11 10 10 10 9 9 9 8 8 8 8 8 8 8 8 8 8 8 8
21 20 21 21 21 20 20 20 20 20 20 19 19 18 18 17 17 17 17 17 16 16 15 14 13 13 12 12 11 11 10 10 10 10 9 9 9 8 8 8 8 8 8 8 8 8 8 8 8
20 19 19 20 21 20 19 18 19 20 20 19 19 18 17 16 16 16 16 16 16 15 15 14 13 12 12 11 11 11 10 10 10 10 9 9 9 9 8 8 8 8 8 8 7 7 7 7 7
20 19 18 21 20 19 18 18 20 20 19 20 19 18 17 16 15 15 15 16 16 15 14 14 13 12 12 11 11 11 10 10 10 9 9 9 9 9 8 8 8 8 8 7 7 7 7 7 7
19 18 19 20 20 20 19 19 19 19 19 19 19 18 17 15 15 15 15 15 15 15 14 14 13 12 11 11 11 10 10 10 10 9 9 9 9 9 8 8 8 8 8 7 7 7 7 7 7
19 20 20 20 20 20 19 19 19 20 20 20 19 18 16 15 14 14 14 14 14 14 14 14 13 12 11 11 10 10 10 10 9 9 9 9 9 9 8 8 8 8 8 7 7 7 7 7 6
19 19 18 20 20 19 18 19 19 20 19 19 19 18 16 15 14 14 14 14 14 14 13 13 13 12 11 11 10 10 10 10 10 10 10 9 9 9 9 8 8 8 8 8 7 7 7 6 6
18 18 18 19 19 19 18 18 19 19 19 19 19 17 16 15 14 13 13 13 13 13 13 13 13 12 12 11 11 10 10 10 10 10 10 9 9 9 9 8 8 8 8 8 7 7 6 6 6
18 17 18 19 19 18 17 17 18 18 19 19 19 17 16 15 14 13 13 13 13 13 13 13 13 12 12 12 11 11 11 10 10 10 10 9 9 9 8 8 8 8 8 7 7 7 6 6 6
17 19 19 18 17 17 18 16 18 17 17 17 18 17 16 15 14 13 13 13 13 13 13 13 13 12 12 12 12 11 11 10 10 9 9 9 9 8 8 8 8 7 7 7 7 6 6 5 5
18 18 18 18 17 16 17 17 17 17 16 16 16 17 16 15 13 13 13 13 13 13 13 13 13 12 12 12 11 11 10 10 9 9 9 9 8 8 8 7 7 7 7 7 6 6 6 5 5
18 17 17 16 15 15 17 17 17 17 17 16 16 17 15 14 13 13 13 13 13 13 13 12 12 12 12 11 11 11 10 10 9 9 8 8 8 7 7 7 7 6 6 6 6 5 5 5 5
17 16 15 15 14 15 19 18 18 19 18 17 17 16 15 14 13 12 12 12 12 12 12 12 12 11 11 11 10 10 10 9 9 8 8 8 7 7 6 6 6 6 6 5 5 5 5 5 4
15 16 16 16 16 17 17 17 18 18 18 19 18 16 15 14 13 12 12 12 12 12 11 11 11 11 11 10 10 9 9 9 8 8 7 7 7 6 6 6 6 6 5 5 5 5 4 4 4
16 16 17 16 17 16 17 18 16 17 16 17 17 16 15 14 13 12 12 11 11 11 11 11 11 10 10 10 9 9 9 8 8 7 7 6 6 6 6 5 5 5 5 5 4 4 4 3 3
16 17 16 15 15 15 18 18 16 15 15 16 15 15 15 14 13 12 11 11 11 10 10 10 10 10 10 9 9 8 8 7 7 7 6 6 6 5 5 5 5 5 4 4 4 3 3 3 2
15 16 16 16 16 16 16 17 17 16 16 15 15 16 15 14 13 12 11 11 10 10 10 10 9 9 9 8 8 8 7 7 6 6 6 5 5 5 5 4 4 4 4 3 3 3 2 2 2
16 16 16 15 16 16 15 16 18 17 17 16 16 16 15 14 13 12 11 10 10 9 9 9 9 8 8 8 7 7 6 6 6 6 5 5 5 5 4 4 4 3 3 3 2 2 1 1 1
Wind_Speed
11 13 8 3 3 5 8 1 3 5 3 8 7 5 6 5 6 6 6 10 13 16 24 25 24 22 20 18 16 14 13 12 12 12 11 11 11 11 11 12 12 12 12 12 13 13 13 13 14
11 8 5 4 5 7 5 5 4 6 7 5 1 3 5 3 9 10 7 9 14 18 24 23 24 22 20 18 17 15 14 13 12 12 11 11 10 10 11 11 11 11 11 11 11 12 12 12 12
10 7 4 4 5 7 2 7 7 7 5 0 2 2 2 4 8 7 8 11 12 16 23 24 25 23 21 19 17 16 14 13 12 12 11 10 10 9 9 10 10 10 10 10 10 10 10 11 11
5 3 5 6 9 5 3 5 7 2 3 2 4 5 3 6 6 7 10 10 12 13 22 24 25 23 21 19 18 16 15 13 13 12 11 11 10 9 9 8 8 8 8 8 9 9 9 9 9
4 4 6 7 9 0 4 6 5 4 3 3 2 6 3 6 11 12 10 10 11 12 20 25 25 23 21 20 18 17 15 14 13 12 11 10 10 9 8 8 7 7 7 7 7 7 7 7 7
4 4 6 7 6 2 2 3 0 5 5 1 2 5 3 8 10 10 10 8 9 12 17 25 24 23 21 20 19 17 16 14 13 12 11 10 9 9 8 7 6 5 5 5 5 5 5 5 5
5 5 8 8 3 1 2 5 4 6 7 5 2 3 4 7 7 8 8 7 8 11 14 21 21 21 21 20 19 18 16 15 13 12 11 10 9 9 8 7 6 5 4 4 3 3 3 3 3
4 5 8 7 5 2 4 4 1 5 8 7 4 4 5 5 6 7 7 6 7 9 10 17 19 19 19 19 19 18 17 15 14 13 12 11 10 9 8 8 7 6 4 3 2 1 1 0 1
4 4 6 6 5 4 4 2 3 2 4 7 6 4 7 9 7 7 6 5 6 8 9 13 16 18 18 18 18 19 18 17 15 13 13 12 11 11 11 10 9 7 5 5 4 4 4 4 5
3 4 8 6 6 7 8 7 6 5 7 8 6 1 8 8 7 7 7 9 9 9 9 10 12 15 17 16 17 17 16 16 15 14 15 14 12 11 11 12 11 9 7 7 7 7 7 8 10
5 7 8 7 6 6 7 9 8 7 8 5 5 6 3 1 4 6 7 8 10 11 9 9 10 15 14 12 14 14 14 15 15 14 16 15 12 10 10 11 11 10 9 10 10 11 11 13 12
5 8 8 6 4 3 6 7 8 8 6 3 3 4 4 4 4 5 6 6 8 11 11 9 9 11 13 13 11 12 11 12 12 13 14 13 10 8 9 10 12 13 12 12 10 10 12 12 11
8 8 7 5 4 6 8 9 9 9 4 2 2 1 3 4 4 3 3 4 6 9 11 9 9 10 11 10 9 10 10 11 12 13 13 12 9 7 7 8 9 10 10 10 9 9 10 10 10
7 9 10 10 9 7 7 10 8 6 2 2 2 1 1 2 3 3 1 2 4 8 10 9 9 9 10 7 6 7 10 11 12 13 14 14 11 9 7 7 8 8 9 9 9 9 9 8 8
5 9 11 11 8 3 2 9 10 6 3 4 3 3 4 3 3 2 1 0 3 7 9 9 8 8 9 8 8 8 9 10 9 11 13 13 12 10 9 6 6 9 11 11 9 9 8 6 6
9 8 7 5 6 6 3 7 3 7 4 3 2 5 6 5 5 4 3 3 4 6 8 8 6 7 8 6 6 6 8 8 8 9 10 12 13 12 9 6 6 10 10 9 5 4 4 5 5
9 9 10 5 7 6 6 7 3 6 5 5 4 6 7 7 7 7 6 5 6 7 8 8 7 6 7 6 6 5 5 5 5 6 7 9 10 11 9 7 7 9 8 6 4 4 5 6 6
7 7 7 2 6 4 7 9 5 7 6 6 6 8 8 8 7 7 7 7 8 8 9 9 7 5 6 5 4 3 3 3 3 3 4 6 7 8 8 6 7 7 4 4 4 6 6 6 6
8 9 11 8 2 2 8 10 7 6 6 6 7 9 9 9 8 7 8 9 9 8 9 8 8 6 5 4 4 3 3 2 1 2 4 5 7 8 7 5 5 6 4 6 6 6 6 6 5
7 10 11 9 2 2 8 10 7 7 8 8 9 10 10 10 9 8 8 8 8 8 8 8 8 7 6 5 4 3 3 2 2 2 4 6 7 8 7 6 4 5 5 6 6 6 5 5 4
9 11 11 8 3 6 6 8 9 8 7 7 8 10 10 10 10 9 9 9 8 8 7 7 8 8 7 6 5 3 2 1 1 1 2 4 6 7 7 6 6 5 5 6 7 7 7 6 5
9 6 5 6 5 5 6 5 5 10 9 9 9 10 10 10 10 9 9 9 8 7 7 8 8 8 7 6 5 4 2 1 2 1 2 3 5 5 6 6 6 5 4 6 7 7 6 7 7
4 3 3 5 7 8 8 6 6 12 12 12 11 11 11 11 10 10 9 9 8 7 7 7 8 7 6 5 4 2 2 1 1 1 1 2 2 3 4 5 5 4 4 6 7 7 7 6 7
2 1 5 5 4 6 10 10 6 11 15 15 13 12 12 11 11 10 9 9 8 6 6 7 7 7 6 5 4 4 3 3 2 2 2 2 2 1 2 3 4 5 4 6 6 7 8 8 8
4 4 4 5 5 8 3 5 5 7 12 15 15 14 13 11 11 10 10 9 8 8 6 7 7 6 5 5 4 4 3 2 1 2 2 3 3 3 3 2 3 4 5 6 6 7 8 8 9
9 7 5 4 3 1 2 5 1 6 5 10 15 15 14 12 11 10 10 9 9 8 7 7 7 6 5 4 3 3 3 1 1 2 2 3 3 3 3 4 5 6 7 7 6 6 8 8 9
7 8 5 5 7 4 5 5 4 4 4 5 12 14 14 12 11 11 10 10 9 8 7 7 6 5 4 3 3 3 2 2 2 3 3 3 3 4 4 5 6 6 7 7 7 7 8 8 9
5 3 4 4 4 5 7 8 7 9 8 8 10 13 13 12 11 11 10 9 8 7 6 6 6 5 4 3 2 1 2 2 2 3 4 5 5 5 6 7 7 8 8 7 8 8 8 9 9
7 4 5 5 5 3 4 2 3 10 11 11 10 11 12 12 12 10 9 9 9 8 7 6 5 4 3 2 1 1 2 2 3 4 5 5 5 6 7 8 8 9 9 9 8 9 9 10 10
8 9 8 5 5 4 3 3 2 6 7 9 10 10 11 11 10 10 10 9 9 8 6 5 4 3 3 2 1 2 2 3 4 5 6 6 7 7 8 8 9 10 10 9 9 10 10 10 11
Wind_Direction
265 252 241 243 244 237 249 133 75 72 51 53 42 348 337 26 40 93 149 147 131 142 153 163 161 159 158 155 150 147 141 137 131 122 115 111 104 94 89 84 79 75 71 68 67 68 66 66 64
273 244 236 238 248 251 224 131 116 67 59 54 74 260 278 88 94 116 139 132 134 146 153 164 163 162 160 158 154 152 148 144 138 130 124 118 111 102 94 88 83 78 73 70 69 68 67 66 64
269 253 234 225 244 264 31 85 77 74 82 56 259 227 301 55 89 103 129 135 137 146 154 164 164 164 163 161 158 156 154 151 145 138 134 127 119 111 102 94 87 81 76 73 70 69 67 66 65
248 226 244 246 250 253 35 67 66 17 133 173 291 284 141 74 73 108 129 144 143 147 154 161 165 167 166 165 162 161 159 156 152 147 142 136 127 120 110 102 96 89 82 76 72 69 67 65 63
245 240 233 246 256 299 67 48 50 300 277 179 205 294 37 77 99 116 135 150 149 150 154 160 167 169 169 168 166 164 163 161 158 154 150 145 137 130 122 116 107 99 92 82 74 70 67 63 61
243 248 247 243 238 127 108 90 160 271 279 252 188 270 75 111 105 117 132 156 152 149 150 158 169 171 171 171 170 168 168 166 164 161 158 154 149 144 140 134 125 116 105 94 82 74 67 62 56
272 267 275 284 302 27 88 62 355 321 314 319 8 319 95 79 92 117 133 158 145 146 147 155 169 173 174 175 174 173 172 172 171 169 167 164 159 159 156 152 147 142 132 118 103 87 72 61 51
304 292 274 280 296 326 56 69 343 319 314 344 4 306 81 121 116 113 123 142 139 144 148 154 168 173 175 178 178 176 175 176 177 175 172 169 168 171 171 169 170 168 165 164 166 167 176 274 274
287 287 283 298 333 342 31 17 307 318 279 284 274 278 118 134 131 131 135 147 150 154 158 156 167 172 175 177 180 178 178 180 180 178 172 170 175 182 185 184 180 185 193 204 215 226 238 250 250
228 267 281 321 349 346 348 343 326 309 287 278 281 78 119 139 157 172 181 178 174 173 175 165 165 169 174 177 175 178 179 181 182 180 175 178 189 192 186 182 180 194 209 223 233 237 245 250 245
248 257 288 318 356 4 331 311 299 282 276 298 341 7 50 162 207 208 212 199 179 173 176 173 165 164 168 170 168 175 177 178 186 188 181 184 190 180 160 163 179 197 211 225 232 229 234 238 236
267 286 293 310 13 345 293 294 298 284 281 327 14 6 327 290 259 232 228 218 169 163 170 175 162 158 164 167 166 168 170 174 182 188 185 181 180 175 174 182 188 200 207 217 221 217 233 236 236
276 274 286 297 274 252 261 267 269 268 274 347 29 315 280 296 307 285 241 208 157 155 161 171 164 156 159 162 165 167 169 173 179 182 187 185 179 181 187 196 205 210 211 210 216 228 244 246 244
314 322 303 279 258 250 258 265 248 246 185 187 201 204 30 11 349 336 335 190 159 150 155 163 165 157 155 159 163 169 171 174 178 181 188 193 195 194 195 202 211 218 223 225 222 230 241 246 245
298 283 277 251 221 188 250 269 227 199 178 219 196 136 104 70 37 17 12 142 151 139 146 153 162 157 155 161 167 170 170 171 175 179 190 197 204 205 203 207 215 221 229 234 236 243 252 255 255
254 255 258 186 166 143 199 277 136 137 181 214 153 110 101 82 62 51 53 69 98 113 125 132 143 155 156 155 157 158 169 171 172 181 192 204 210 212 211 211 220 230 234 233 230 233 251 257 255
242 244 252 173 176 170 218 269 168 158 190 198 156 118 106 88 68 60 67 79 95 110 115 122 133 152 147 141 140 147 155 156 161 182 197 214 222 223 222 221 229 238 239 235 232 233 236 254 261
289 294 303 287 164 200 247 265 230 182 195 189 150 121 107 93 79 72 74 77 87 101 110 117 121 131 130 129 129 127 121 119 138 181 212 226 232 234 234 232 238 246 247 246 238 242 243 247 255
306 310 303 299 126 209 259 265 241 180 180 185 151 128 116 108 101 91 86 87 87 93 104 114 122 124 116 117 128 130 134 131 143 214 238 241 242 244 241 237 239 241 243 245 244 247 254 258 259
293 283 279 280 152 213 271 269 245 183 183 177 152 136 128 122 113 107 100 93 93 96 102 109 114 114 108 108 109 109 115 133 161 201 229 244 249 249 245 237 235 239 246 255 254 251 256 260 245
254 254 267 293 321 240 256 271 220 171 164 150 142 133 132 133 129 118 106 97 89 86 92 101 102 102 101 106 102 94 92 78 181 216 228 237 245 248 244 243 243 244 241 249 251 246 245 255 251
258 270 275 295 299 277 209 270 194 166 166 166 162 144 137 129 125 120 112 102 95 90 90 96 99 99 104 112 116 134 146 167 201 195 211 231 232 233 238 244 249 249 246 251 252 247 242 244 253
252 35 316 278 270 279 255 249 235 162 180 183 175 154 141 133 128 122 117 114 109 106 103 104 103 104 106 106 112 110 92 79 45 26 345 309 284 247 241 247 255 259 254 256 258 260 252 243 244
111 221 251 253 255 260 231 214 244 180 190 181 173 156 145 137 133 128 124 119 116 114 111 113 111 108 105 100 100 91 76 41 18 354 342 321 304 284 263 255 256 262 260 259 259 257 256 253 252
182 214 238 214 215 241 216 197 257 176 174 174 169 157 149 144 143 144 143 138 136 134 131 125 118 115 111 102 94 91 82 49 16 354 350 336 325 315 302 300 279 273 267 266 261 260 259 256 255
194 218 238 263 247 165 176 225 229 75 92 156 156 152 150 152 153 154 152 145 143 143 140 127 119 114 105 97 87 78 72 50 10 351 328 311 300 296 307 312 295 286 282 277 269 264 260 259 256
199 214 254 305 301 285 244 190 110 94 87 123 147 151 157 159 157 156 153 149 147 146 137 126 122 114 103 94 80 64 49 26 349 327 310 299 294 294 298 292 286 282 279 275 272 266 264 262 259
279 264 181 206 245 254 254 220 191 176 180 175 164 161 162 160 159 158 156 153 148 140 127 121 118 115 109 93 81 55 8 3 337 315 303 296 295 295 294 289 285 282 279 276 276 274 269 269 267
192 233 226 228 256 264 284 317 47 160 173 179 180 170 165 164 163 160 157 149 139 131 130 127 122 119 110 93 67 23 344 331 314 299 294 297 297 298 295 292 291 289 287 284 282 280 281 279 279
197 205 207 218 236 224 262 285 67 106 139 162 170 168 164 162 159 156 150 143 140 140 142 139 135 126 115 93 31 336 317 310 303 300 302 304 301 298 295 293 291 288 287 286 284 285 286 284 284
Height
1525 1528 1531 1534 1536 1535 1531 1520 1517 1520 1522 1524 1527 1528 1528 1528 1532 1541 1540 1538 1538 1538 1539 1541 1542 1544 1546 1548 1549 1551 1552 1553 1555 1556 1556 1557 1557 1558 1558 1558 1558 1558 1558 1558 1558 1557 1557 1557 1557
1525 1530 1533 1534 1535 1539 1527 1517 1519 1521 1524 1527 1528 1529 1527 1528 1530 1534 1536 1537 1537 1538 1539 1541 1542 1544 1546 1548 1549 1551 1552 1554 1555 1556 1557 1557 1558 1558 1559 1558 1558 1558 1558 1558 1558 1558 1558 1558 1558
1526 1531 1533 1531 1532 1532 1523 1517 1518 1522 1525 1527 1527 1527 1528 1529 1531 1534 1536 1537 1537 1537 1539 1540 1542 1544 1546 1548 1549 1551 1553 1554 1555 1556 1557 1558 1558 1559 1559 1559 1559 1559 1559 1559 1559 1559 1559 1558 1558
1529 1532 1531 1530 1528 1519 1516 1517 1520 1523 1525 1527 1527 1526 1526 1528 1530 1533 1535 1536 1536 1537 1538 1540 1542 1544 1545 1547 1549 1551 1553 1554 1556 1557 1558 1558 1559 1559 1559 1560 1560 1560 1560 1560 1560 1560 1559 1559 1559
1530 1530 1530 1530 1522 1514 1515 1518 1522 1524 1524 1525 1526 1526 1527 1528 1529 1531 1534 1535 1536 1536 1537 1539 1541 1543 1545 1547 1549 1551 1553 1555 1556 1557 1558 1559 1559 1560 1560 1560 1560 1560 1560 1560 1560 1560 1560 1560 1560
1531 1527 1530 1529 1519 1514 1516 1519 1522 1524 1523 1524 1525 1526 1528 1528 1528 1530 1532 1534 1535 1536 1537 1538 1540 1542 1544 1547 1549 1551 1553 1555 1556 1557 1558 1559 1560 1560 1560 1560 1560 1560 1561 1561 1561 1561 1561 1561 1561
1530 1527 1528 1523 1519 1517 1517 1519 1523 1523 1523 1524 1524 1526 1528 1528 1529 1530 1531 1533 1535 1535 1536 1536 1539 1541 1544 1546 1548 1551 1553 1554 1556 1557 1558 1559 1560 1560 1560 1561 1561 1561 1561 1561 1561 1561 1561 1561 1561
1529 1527 1526 1523 1521 1519 1518 1521 1524 1525 1525 1525 1525 1526 1527 1528 1529 1529 1530 1532 1533 1534 1535 1535 1537 1540 1542 1545 1548 1550 1552 1554 1556 1557 1558 1559 1560 1560 1561 1561 1561 1561 1561 1561 1561 1561 1561 1561 1561
1529 1531 1531 1523 1522 1520 1519 1521 1523 1524 1525 1525 1525 1526 1525 1526 1527 1528 1528 1530 1531 1532 1534 1534 1536 1538 1541 1544 1546 1549 1551 1553 1555 1556 1557 1558 1559 1560 1560 1560 1561 1561 1561 1561 1561 1561 1561 1561 1561
1528 1533 1527 1521 1520 1520 1521 1522 1523 1524 1524 1523 1523 1524 1523 1524 1524 1525 1526 1527 1528 1530 1532 1533 1534 1536 1539 1542 1545 1547 1550 1552 1553 1555 1556 1557 1558 1559 1560 1560 1560 1560 1560 1560 1560 1560 1560 1560 1560
1525 1526 1523 1521 1521 1522 1523 1523 1523 1523 1523 1522 1522 1522 1522 1522 1523 1523 1524 1525 1525 1527 1529 1532 1533 1535 1537 1540 1543 1545 1548 1550 1552 1553 1555 1556 1557 1558 1559 1559 1559 1559 1559 1559 1559 1559 1559 1558 1558
1524 1523 1521 1521 1521 1522 1523 1523 1522 1521 1521 1521 1520 1520 1520 1520 1520 1520 1521 1522 1523 1524 1526 1530 1532 1534 1536 1539 1541 1544 1546 1548 1550 1552 1554 1555 1556 1557 1557 1557 1558 1557 1557 1557 1557 1557 1557 1557 1557
1522 1521 1520 1520 1521 1521 1521 1521 1520 1518 1518 1518 1518 1518 1518 1518 1517 1517 1518 1519 1521 1522 1524 1527 1530 1532 1534 1537 1540 1542 1544 1546 1548 1550 1552 1553 1554 1555 1556 1556 1556 1556 1556 1556 1556 1555 1555 1555 1554
1522 1521 1519 1518 1517 1518 1518 1517 1517 1514 1515 1516 1516 1516 1516 1515 1515 1514 1515 1516 1518 1519 1521 1524 1527 1530 1532 1535 1538 1540 1542 1545 1546 1548 1549 1551 1552 1553 1553 1554 1554 1554 1554 1554 1553 1553 1553 1552 1551
1522 1521 1517 1512 1513 1514 1517 1516 1511 1512 1513 1514 1514 1514 1514 1514 1513 1512 1513 1514 1516 1518 1519 1522 1525 1528 1531 1533 1536 1539 1541 1543 1544 1546 1547 1548 1549 1550 1551 1551 1551 1551 1551 1551 1551 1550 1549 1548 1548
1520 1520 1519 1508 1510 1513 1519 1518 1507 1509 1511 1512 1513 1513 1514 1513 1512 1511 1511 1512 1514 1516 1518 1520 1523 1527 1529 1532 1534 1537 1539 1541 1542 1543 1545 1546 1547 1548 1548 1548 1548 1548 1548 1548 1547 1546 1545 1544 1543
1518 1520 1514 1509 1508 1509 1514 1514 1508 1508 1510 1511 1511 1512 1513 1513 1512 1511 1511 1512 1513 1515 1517 1519 1522 1525 1528 1530 1533 1535 1537 1539 1540 1541 1542 1543 1544 1544 1545 1545 1545 1545 1544 1544 1543 1542 1541 1540 1538
1518 1514 1509 1508 1507 1508 1511 1510 1505 1505 1507 1508 1510 1511 1513 1513 1513 1512 1512 1512 1513 1515 1516 1518 1521 1524 1527 1529 1531 1533 1535 1536 1537 1538 1539 1540 1541 1541 1541 1541 1541 1541 1540 1539 1539 1537 1536 1535 1533
1513 1515 1516 1509 1505 1508 1509 1507 1502 1502 1504 1506 1508 1510 1512 1514 1514 1513 1513 1513 1514 1515 1517 1518 1520 1523 1525 1527 1529 1531 1532 1534 1535 1536 1536 1537 1537 1537 1537 1537 1536 1536 1535 1535 1534 1533 1532 1530 1529
1514 1518 1516 1508 1504 1506 1507 1504 1498 1498 1500 1503 1505 1508 1511 1513 1514 1514 1514 1514 1515 1516 1518 1519 1521 1523 1524 1526 1528 1529 1531 1532 1532 1533 1533 1534 1534 1533 1533 1533 1532 1532 1531 1530 1529 1528 1527 1525 1525
1515 1517 1514 1510 1505 1504 1507 1505 1497 1496 1498 1501 1504 1507 1510 1512 1514 1515 1515 1515 1516 1517 1518 1520 1521 1523 1524 1526 1527 1528 1529 1530 1531 1531 1531 1531 1530 1530 1530 1529 1528 1527 1526 1525 1525 1524 1522 1520 1520
1515 1507 1507 1509 1514 1512 1507 1515 1497 1495 1498 1500 1503 1506 1509 1512 1513 1514 1515 1515 1517 1518 1519 1520 1522 1523 1524 1525 1527 1527 1528 1529 1529 1529 1529 1528 1528 1527 1526 1525 1524 1523 1522 1521 1520 1519 1517 1516 1514
1507 1507 1508 1509 1513 1516 1506 1511 1498 1493 1498 1499 1501 1504 1507 1510 1512 1513 1514 1515 1517 1518 1520 1521 1522 1523 1524 1525 1526 1527 1527 1528 1528 1527 1527 1526 1525 1524 1523 1522 1521 1519 1518 1517 1515 1514 1512 1510 1508
1505 1508 1509 1511 1515 1522 1501 1506 1497 1490 1489 1493 1497 1501 1505 1508 1511 1512 1514 1515 1517 1518 1520 1521 1522 1523 1524 1525 1525 1526 1526 1526 1525 1525 1524 1523 1522 1521 1520 1518 1517 1515 1514 1512 1510 1508 1507 1505 1503
1508 1515 1521 1523 1526 1516 1487 1492 1488 1475 1477 1483 1490 1496 1502 1506 1509 1511 1513 1514 1516 1518 1519 1521 1522 1522 1523 1524 1524 1524 1524 1523 1523 1522 1521 1520 1518 1517 1516 1514 1512 1511 1509 1507 1505 1502 1500 1498 1496
1506 1508 1516 1517 1511 1499 1495 1495 1484 1475 1475 1479 1486 1493 1499 1504 1507 1509 1511 1513 1515 1517 1518 1520 1521 1521 1522 1522 1522 1522 1521 1520 1520 1518 1517 1516 1514 1513 1511 1509 1508 1505 1503 1501 1498 1496 1493 1491 1488
1500 1504 1498 1506 1502 1504 1493 1483 1484 1477 1479 1481 1485 1490 1495 1500 1504 1507 1510 1512 1513 1515 1517 1518 1519 1519 1520 1520 1520 1519 1518 1517 1516 1515 1513 1512 1510 1508 1506 1504 1502 1500 1497 1495 1492 1489 1486 1483 1480
1495 1494 1501 1508 1511 1510 1490 1483 1484 1484 1482 1483 1485 1489 1493 1498 1502 1505 1508 1510 1512 1513 1515 1516 1517 1517 1517 1517 1516 1516 1515 1514 1512 1511 1509 1507 1505 1503 1501 1499 1496 1493 1491 1488 1485 1481 1478 1475 1472
1496 1496 1495 1497 1495 1504 1502 1488 1473 1474 1476 1480 1483 1486 1491 1495 1499 1502 1505 1508 1510 1511 1512 1513 1514 1514 1514 1514 1513 1512 1511 1510 1508 1507 1505 1503 1501 1498 1496 1493 1490 1487 1484 1481 1477 1474 1470 1467 1464
1485 1488 1492 1500 1496 1492 1499 1492 1471 1471 1473 1476 1480 1484 1489 1493 1497 1500 1503 1505 1507 1508 1510 1511 1511 1511 1511 1511 1510 1509 1508 1506 1504 1502 1500 1498 1495 1493 1490 1486 1483 1480 1476 1473 1469 1465 1462 1458 1455